Total_Precipitation_Accumulation
0.28 0.20 0.15 0.24 0.28 0.68 1.05 1.09 0.96 0.99 1.10 1.01 0.85 0.75 0.82 0.92 1.00 0.88 0.65 0.63 0.67 0.67 0.70 0.74 0.70 0.87 1.01 0.97 0.96 0.98 0.93 0.86 0.73 0.43 0.31 0.29 0.26 0.26 0.22 0.23 0.21 0.25 0.16
0.96 1.05 0.79 0.98 1.04 1.16 1.54 1.51 1.28 1.16 0.95 0.85 0.97 0.89 0.72 0.61 0.54 0.54 0.51 0.51 0.47 0.54 0.58 0.69 0.64 0.80 0.80 0.71 0.72 0.60 0.57 0.54 0.51 0.40 0.30 0.27 0.21 0.20 0.23 0.22 0.21 0.23 0.17
1.36 1.43 1.16 1.39 1.41 1.70 1.55 1.36 1.23 1.13 1.05 0.91 0.74 0.58 0.42 0.37 0.32 0.31 0.31 0.33 0.41 0.43 0.45 0.41 0.38 0.50 0.46 0.47 0.50 0.44 0.41 0.46 0.50 0.52 0.49 0.40 0.38 0.34 0.34 0.30 0.22 0.15 0.13
0.59 0.59 0.85 0.93 0.76 0.73 0.55 0.56 0.50 0.50 0.44 0.33 0.31 0.31 0.29 0.25 0.23 0.24 0.22 0.22 0.25 0.32 0.40 0.38 0.34 0.32 0.29 0.37 0.48 0.47 0.47 0.48 0.51 0.55 0.52 0.45 0.38 0.33 0.33 0.38 0.45 0.44 0.40
0.53 0.50 0.52 0.50 0.46 0.34 0.30 0.30 0.34 0.36 0.33 0.32 0.31 0.26 0.22 0.23 0.26 0.24 0.18 0.16 0.16 0.18 0.21 0.23 0.31 0.48 0.61 0.62 0.72 0.66 0.66 0.69 0.69 0.70 0.61 0.53 0.49 0.47 0.42 0.42 0.62 0.71 0.75
0.65 0.63 0.48 0.45 0.43 0.40 0.38 0.31 0.32 0.33 0.27 0.25 0.24 0.26 0.26 0.21 0.36 0.26 0.16 0.13 0.18 0.19 0.19 0.19 0.30 0.67 0.56 0.77 0.86 0.99 0.93 0.94 0.82 0.78 0.81 0.80 0.70 0.73 0.72 0.75 0.84 0.92 0.91
0.80 0.72 0.54 0.45 0.41 0.34 0.24 0.22 0.23 0.31 0.37 0.41 0.36 0.26 0.18 0.20 0.34 0.20 0.19 0.09 0.10 0.16 0.16 0.18 0.23 0.37 0.58 0.42 0.82 0.87 0.93 1.17 1.07 0.96 1.02 0.86 0.86 0.81 0.82 0.82 0.74 0.80 0.82
0.68 0.67 0.61 0.44 0.36 0.37 0.29 0.31 0.37 0.45 0.45 0.33 0.23 0.16 0.13 0.19 0.30 0.17 0.16 0.09 0.12 0.17 0.20 0.21 0.24 0.31 0.50 0.56 0.57 0.69 0.67 0.75 0.83 0.80 0.74 0.68 0.64 0.61 0.54 0.56 0.67 0.80 0.77
0.62 0.64 0.62 0.55 0.45 0.50 0.58 0.66 0.58 0.40 0.36 0.31 0.22 0.16 0.15 0.16 0.23 0.16 0.14 0.09 0.19 0.23 0.23 0.30 0.39 0.36 0.73 0.62 0.45 0.47 0.49 0.51 0.72 0.71 0.65 0.68 0.68 0.69 0.60 0.61 0.71 0.85 0.84
0.76 0.74 0.72 0.65 0.72 0.76 0.66 0.62 0.60 0.46 0.39 0.35 0.34 0.29 0.40 0.21 0.32 0.21 0.16 0.09 0.18 0.22 0.23 0.30 0.58 0.35 0.58 0.51 0.47 0.44 0.52 0.43 0.44 0.52 0.54 0.51 0.51 0.60 0.69 0.62 0.69 0.99 0.99
1.11 0.98 1.16 1.01 0.77 0.64 0.62 0.53 0.67 0.65 0.53 0.55 0.60 0.50 0.44 0.49 0.45 0.41 0.28 0.15 0.19 0.28 0.35 0.41 0.62 1.15 0.86 0.85 0.75 0.74 1.11 1.01 1.09 0.83 0.72 0.69 0.63 0.62 0.67 0.73 0.81 1.02 1.15
1.56 1.45 1.17 1.43 1.24 1.02 0.90 0.80 0.64 0.80 1.06 0.98 0.91 0.84 0.71 0.65 0.91 0.69 0.63 0.95 1.21 1.05 1.18 1.18 1.41 1.39 1.29 1.47 1.51 1.77 1.66 1.39 1.23 1.25 1.22 1.16 1.11 1.02 0.87 0.77 0.76 0.74 0.68
1.20 1.48 1.55 1.52 1.77 1.62 1.47 1.31 1.17 0.99 0.97 1.08 1.15 1.16 1.06 0.84 1.11 1.29 1.02 1.17 1.34 1.25 1.64 1.94 1.95 1.74 1.57 1.69 1.91 1.94 1.87 1.83 1.88 1.83 1.67 1.43 1.15 0.89 0.72 0.62 0.53 0.43 0.41
0.69 0.81 1.03 1.35 1.59 1.81 1.91 1.91 1.74 1.66 1.58 1.58 1.56 1.60 1.52 1.28 1.13 1.29 1.47 1.57 1.77 2.02 2.45 2.63 2.62 2.47 2.37 2.37 2.30 2.10 1.91 1.77 1.53 1.29 1.01 0.76 0.60 0.50 0.52 0.53 0.65 0.53 0.54
0.32 0.35 0.43 0.67 0.97 1.32 1.77 2.19 2.25 2.34 2.22 2.02 1.89 1.80 1.88 2.05 2.27 2.19 2.08 1.99 2.09 2.15 2.14 2.22 2.07 1.82 1.61 1.39 1.19 1.01 0.84 0.72 0.64 0.55 0.53 0.45 0.40 0.40 0.37 0.32 0.39 0.38 0.47
0.29 0.32 0.39 0.40 0.58 0.83 1.17 1.64 2.22 2.55 2.50 2.45 2.50 2.34 2.58 2.70 2.75 2.40 2.24 2.21 2.10 1.79 1.56 1.40 1.26 1.11 0.96 0.84 0.71 0.62 0.56 0.53 0.44 0.41 0.39 0.31 0.31 0.35 0.37 0.35 0.35 0.37 0.35
0.60 0.62 0.68 0.69 0.71 0.83 1.01 1.24 1.76 2.28 2.47 2.66 2.67 2.59 2.47 2.47 2.25 2.07 1.79 1.58 1.43 1.17 1.21 1.09 0.96 0.86 0.72 0.56 0.49 0.47 0.50 0.47 0.42 0.40 0.40 0.38 0.36 0.34 0.36 0.32 0.31 0.29 0.30
1.18 1.26 1.32 1.51 1.60 1.68 1.74 1.84 1.85 1.85 1.80 1.82 1.74 1.52 1.40 1.29 1.21 1.16 1.05 0.93 0.94 0.79 0.70 0.62 0.56 0.49 0.42 0.41 0.38 0.35 0.31 0.27 0.25 0.22 0.23 0.24 0.24 0.25 0.26 0.25 0.28 0.31 0.28
0.73 0.91 0.97 0.97 0.89 0.81 0.81 0.83 0.86 0.89 0.89 0.92 0.83 0.71 0.67 0.54 0.44 0.38 0.32 0.45 0.46 0.42 0.40 0.37 0.34 0.28 0.21 0.18 0.21 0.21 0.22 0.21 0.19 0.19 0.17 0.18 0.21 0.24 0.21 0.17 0.16 0.14 0.15
0.67 0.72 0.60 0.60 0.62 0.57 0.51 0.46 0.43 0.40 0.39 0.38 0.40 0.45 0.31 0.22 0.20 0.19 0.22 0.27 0.30 0.24 0.19 0.16 0.16 0.17 0.17 0.16 0.16 0.18 0.18 0.15 0.16 0.17 0.19 0.21 0.21 0.21 0.23 0.22 0.20 0.19 0.12
0.68 0.65 0.52 0.43 0.40 0.36 0.31 0.28 0.25 0.28 0.26 0.23 0.20 0.15 0.13 0.24 0.27 0.26 0.25 0.25 0.21 0.18 0.16 0.15 0.13 0.13 0.13 0.15 0.14 0.15 0.15 0.14 0.14 0.16 0.15 0.17 0.21 0.22 0.19 0.21 0.19 0.16 0.14
0.40 0.35 0.30 0.29 0.27 0.24 0.20 0.17 0.17 0.17 0.16 0.17 0.18 0.18 0.22 0.29 0.25 0.20 0.19 0.18 0.19 0.20 0.21 0.22 0.21 0.18 0.18 0.21 0.22 0.21 0.17 0.16 0.18 0.18 0.14 0.13 0.16 0.18 0.20 0.19 0.19 0.19 0.16
0.26 0.24 0.20 0.18 0.17 0.15 0.15 0.16 0.19 0.19 0.18 0.20 0.19 0.16 0.14 0.20 0.21 0.20 0.18 0.16 0.17 0.19 0.18 0.22 0.21 0.16 0.12 0.15 0.19 0.24 0.23 0.16 0.17 0.23 0.22 0.17 0.15 0.16 0.18 0.20 0.19 0.21 0.18
0.18 0.16 0.16 0.16 0.15 0.16 0.17 0.18 0.22 0.27 0.30 0.27 0.23 0.22 0.21 0.20 0.21 0.21 0.18 0.16 0.15 0.13 0.12 0.15 0.16 0.15 0.14 0.14 0.16 0.18 0.19 0.18 0.22 0.24 0.30 0.26 0.15 0.13 0.18 0.19 0.17 0.16 0.17
0.16 0.18 0.19 0.20 0.23 0.27 0.31 0.31 0.28 0.22 0.22 0.23 0.22 0.21 0.18 0.17 0.17 0.17 0.17 0.16 0.14 0.12 0.11 0.11 0.10 0.08 0.09 0.12 0.13 0.10 0.11 0.18 0.25 0.27 0.31 0.24 0.17 0.15 0.18 0.20 0.18 0.18 0.16
0.16 0.19 0.21 0.23 0.28 0.27 0.28 0.24 0.20 0.18 0.19 0.17 0.17 0.16 0.15 0.14 0.11 0.11 0.10 0.11 0.12 0.11 0.08 0.08 0.08 0.07 0.08 0.09 0.13 0.13 0.10 0.14 0.19 0.24 0.33 0.29 0.21 0.16 0.19 0.22 0.21 0.23 0.15